Location: Anumalkud?ru
(16.4847°N, 80.6636°E)
Time: 09:07:25
(UTC+00:00)

IRAS Rocket - Pass Details

Date: 11 April 2026
Orbit: 845 x 876 km, 100.1° (Epoch: 12 May)

Event Time Altitude Azimuth Distance (km) Brightness Sun altitude
Exits shadow 14:23:49 45° 81° (E) 1,161 4.5 -22.3°
Maximum altitude 14:24:03 45° 74° (ENE) 1,156 4.5 -22.3°
Drops below altitude 10° 14:29:15 10° 3° (N) 2,480 6.8 -23.5°
Sets 14:31:42 0° 357° (N) 3,412 7.6 -24.1°
